Location: Unspecified
(48.8582°N, 2.2947°E)
Time: 07:37:24
(UTC+02:00)

ISS - Visible Passes

Search period start: 26 September 2018 00:00
Search period end: 06 October 2018 00:00
Orbit: 403 x 408 km, 51.6° (Epoch: 26 September)

Date Brightness Start Highest point End Pass type
(mag) Time Alt. Az. Time Alt. Az. Time Alt. Az.
26 Sep -3.0 20:09:50 10° SW 20:12:53 36° SSE 20:15:58 10° E visible
26 Sep -3.4 21:46:01 10° W 21:49:04 62° NW 21:49:04 62° NW visible
27 Sep -3.8 20:54:03 10° WSW 20:57:22 85° NNW 20:59:15 23° ENE visible
27 Sep -1.0 22:30:51 10° WNW 22:31:56 19° WNW 22:31:56 19° WNW visible
28 Sep -3.7 20:02:10 10° WSW 20:05:27 68° SSE 20:08:44 10° ENE visible
28 Sep -3.2 21:38:50 10° W 21:42:03 52° N 21:42:03 52° N visible
29 Sep -3.4 20:46:47 10° W 20:50:04 60° NNW 20:52:07 21° ENE visible
29 Sep -1.1 22:23:35 10° WNW 22:24:47 20° WNW 22:24:47 20° WNW visible
30 Sep -3.2 21:31:34 10° WNW 21:34:48 50° N 21:34:48 50° N visible
01 Oct -3.2 20:39:32 10° W 20:42:46 50° N 20:44:47 20° ENE visible
01 Oct -1.2 22:16:13 10° WNW 22:17:27 21° WNW 22:17:27 21° WNW visible
02 Oct -3.5 21:24:13 10° WNW 21:27:26 58° N 21:27:26 58° N visible
03 Oct -3.3 20:32:12 10° WNW 20:35:26 51° N 20:37:24 21° ENE visible
03 Oct -1.3 22:08:46 10° WNW 22:10:04 22° WNW 22:10:04 22° WNW visible
04 Oct -3.9 21:16:46 10° WNW 21:20:03 81° N 21:20:03 81° N visible
05 Oct -3.6 20:24:44 10° WNW 20:28:02 63° NNE 20:30:03 21° E visible
05 Oct -1.3 22:01:21 10° WNW 22:02:43 21° W 22:02:43 21° W visible
